Location: Unspecified
(49.9820°N, 20.4363°E)
Time: 22:22:47
(UTC+02:00)

Vanguard 2 - All Passes

Search period start: 15 May 2026 00:00
Search period end: 25 May 2026 00:00
Orbit: 553 x 2895 km, 32.9° (Epoch: 15 May)

Date Brightness Start Highest point End Pass type
(mag) Time Alt. Az. Time Alt. Az. Time Alt. Az.
15 May - 00:08:43 10° SSE 00:16:58 15° SE 00:25:15 10° ESE visible
15 May - 02:11:37 10° SSW 02:25:42 32° SSE 02:38:30 10° ESE visible
15 May - 04:20:04 10° WSW 04:35:22 40° S 04:47:25 10° ESE daylight
15 May - 06:31:12 10° WSW 06:44:25 33° SSW 06:54:03 10° SE daylight
15 May - 08:45:24 10° WSW 08:51:38 15° SW 08:56:47 10° SSW daylight
16 May - 00:17:40 10° S 00:27:55 19° SE 00:38:19 10° ESE visible
16 May - 02:22:17 10° SW 02:36:55 35° SSE 02:50:14 10° ESE visible
16 May - 04:31:17 10° WSW 04:46:41 40° S 04:58:50 10° ESE daylight
16 May - 06:42:47 10° WSW 06:55:34 30° SSW 07:05:04 10° SSE daylight
16 May - 08:58:51 10° WSW 09:02:31 12° SW 09:05:47 10° SSW daylight
17 May - 00:27:21 10° S 00:38:54 23° SE 00:50:46 10° ESE visible
17 May - 02:33:08 10° SW 02:48:10 38° SSE 03:01:51 10° ESE visible
17 May - 04:42:36 10° WSW 04:57:58 40° S 05:10:10 10° SE daylight
17 May - 06:54:29 10° W 07:06:39 27° SSW 07:15:54 10° SSE daylight
18 May - 00:37:28 10° SSW 00:49:56 27° SSE 01:02:52 10° E visible
18 May - 02:44:08 10° SW 02:59:25 40° S 03:13:24 10° ESE visible
18 May - 04:53:59 10° WSW 05:09:13 39° SSW 05:21:25 10° SE daylight
18 May - 07:06:21 10° W 07:17:40 24° SW 07:26:32 10° SSE daylight
18 May - 22:46:56 10° SSE 22:52:54 13° SE 22:59:14 10° ESE visible
19 May - 00:47:55 10° SSW 01:01:00 31° SSE 01:14:45 10° E visible
19 May - 02:55:15 10° WSW 03:10:41 42° S 03:24:52 10° ESE visible
19 May - 05:05:27 10° WSW 05:20:26 37° SSW 05:32:34 10° SE daylight
19 May - 07:18:26 10° W 07:28:37 21° SW 07:36:53 10° S daylight
19 May - 22:55:26 10° S 23:03:44 17° SE 23:12:51 10° ESE visible
20 May - 00:58:34 10° SW 01:12:07 34° SSE 01:26:29 10° ESE visible
20 May - 03:06:28 10° WSW 03:21:58 42° S 03:36:15 10° ESE visible
20 May - 05:16:59 10° WSW 05:31:36 35° SSW 05:43:35 10° SE daylight
20 May - 07:30:54 10° WSW 07:39:30 17° SW 07:46:46 10° S daylight
20 May - 23:04:58 10° S 23:14:36 21° SE 23:25:32 10° E visible
21 May - 01:09:26 10° SW 01:23:17 37° SSE 01:38:06 10° ESE visible
21 May - 03:17:46 10° WSW 03:33:14 42° S 03:47:35 10° ESE visible
21 May - 05:28:37 10° W 05:42:43 32° SSW 05:54:27 10° SSE daylight
21 May - 07:44:05 10° WSW 07:50:19 13° SW 07:55:52 10° SSW daylight
21 May - 23:15:01 10° S 23:25:31 24° SE 23:37:45 10° E visible
22 May - 01:20:26 10° SW 01:34:28 40° SSE 01:49:38 10° ESE visible
22 May - 03:29:09 10° WSW 03:44:29 41° S 03:58:49 10° SE visible
22 May - 05:40:22 10° W 05:53:46 29° SSW 06:05:07 10° SSE daylight
22 May - 23:25:25 10° SSW 23:36:30 28° SSE 23:49:42 10° E visible
23 May - 01:31:33 10° SW 01:45:41 41° S 02:01:05 10° ESE visible
23 May - 03:40:35 10° WSW 03:55:43 40° SSW 04:09:57 10° SE visible
23 May - 05:52:18 10° W 06:04:45 25° SW 06:15:32 10° SSE daylight
23 May - 21:35:05 10° SSE 21:40:03 13° SE 21:45:35 10° ESE visible
23 May - 23:36:04 10° SSW 23:47:32 31° SSE 00:01:28 10° E visible
24 May - 01:42:46 10° WSW 01:56:56 42° S 02:12:28 10° ESE visible
24 May - 03:52:07 10° WSW 04:06:55 38° SSW 04:20:57 10° SE visible
24 May - 06:04:29 10° W 06:15:40 21° SW 06:25:37 10° S daylight
24 May - 21:44:00 10° SSE 21:50:51 16° SE 21:58:58 10° ESE visible
